GEFSMW_con_probscp_234.txt.gz
Probability
6 7 6 5 4 6 7 8 9 9 6 4 2 1 0 0 0 0 0 0 0 0 0 0 1 2 3 2 1 0 0 1 3 4 3 1 0 1 0 0 0 0 0
6 7 8 8 7 7 7 7 9 10 8 4 2 1 0 0 0 0 0 1 1 1 1 0 1 2 3 2 2 2 3 4 5 6 5 2 1 1 1 0 0 0 0
7 9 11 13 12 10 8 7 8 10 9 5 2 1 0 0 0 0 1 2 2 2 2 1 2 3 3 3 4 6 7 7 8 8 8 6 4 3 1 0 0 1 1
8 11 14 17 17 15 11 8 8 10 9 7 4 2 1 0 1 1 2 3 3 3 3 3 3 4 4 5 6 8 9 8 7 8 9 9 7 5 2 0 0 0 0
9 11 14 18 19 17 14 11 12 12 11 9 7 5 4 3 4 4 4 4 4 4 4 5 5 6 6 6 6 7 8 7 6 7 8 9 9 8 4 1 0 0 0
8 10 13 18 21 19 17 16 17 17 15 13 10 8 9 10 11 10 8 6 6 6 7 8 9 10 10 9 7 6 6 6 7 7 7 8 9 8 5 3 2 1 1
7 9 13 19 24 24 21 21 22 22 21 19 16 15 15 17 17 14 11 8 7 7 9 11 14 15 15 12 8 6 6 6 8 7 6 7 9 9 7 4 3 2 2
6 9 13 19 24 25 24 25 25 26 26 25 25 23 21 20 19 17 13 10 8 8 9 12 15 16 16 13 10 9 8 7 7 5 4 5 7 8 8 7 5 4 3
6 8 12 16 20 23 25 27 30 31 31 31 30 28 25 21 20 19 15 11 11 11 12 14 15 15 16 15 13 12 12 10 8 6 5 5 6 7 8 8 8 6 5
8 8 10 13 17 21 25 29 33 37 37 35 32 29 27 24 21 20 19 16 15 16 17 19 19 17 17 18 18 16 15 14 12 10 8 6 5 5 7 8 9 9 8
10 10 11 13 15 20 26 29 33 39 41 40 36 34 33 30 27 26 26 24 23 23 23 23 23 21 20 21 22 20 17 17 16 15 12 10 8 8 9 9 9 10 11
13 13 15 16 18 22 26 29 33 39 42 43 43 43 41 37 34 34 33 31 30 31 29 26 24 23 22 24 25 24 21 19 19 18 18 16 15 15 15 14 13 12 12
15 17 21 24 25 27 30 31 34 39 41 43 46 47 44 40 38 37 35 34 36 37 34 31 29 25 23 25 26 25 23 21 20 21 21 21 23 24 24 23 20 17 16
20 24 28 30 32 35 37 36 37 40 40 40 42 43 41 38 37 35 32 33 37 38 35 35 34 31 27 27 27 26 24 23 24 25 24 24 27 28 28 27 25 23 23
27 31 34 36 38 41 42 40 40 42 42 41 41 39 36 35 34 33 31 31 35 36 33 33 34 33 32 30 28 27 27 28 30 31 31 29 28 27 25 23 22 24 26
31 33 37 40 43 44 44 43 43 43 45 46 46 42 36 33 32 31 30 30 32 34 33 31 32 32 31 28 24 23 26 31 35 37 36 32 28 26 21 16 13 16 21
30 31 35 39 42 43 42 42 43 44 46 48 46 41 35 32 31 30 29 30 31 33 34 33 32 31 28 22 16 16 22 29 34 37 35 31 28 27 26 19 13 14 16
30 30 32 36 37 37 37 38 41 43 45 45 42 37 35 34 32 32 32 32 33 35 35 34 34 32 26 16 9 10 17 25 29 32 32 30 28 27 29 27 22 21 21
33 32 33 34 35 35 34 34 35 38 40 40 39 38 38 38 35 34 35 36 37 38 37 35 34 31 24 12 4 6 15 21 23 25 27 27 25 22 21 24 26 26 26
38 37 35 34 34 33 32 31 31 32 33 34 36 36 38 39 36 34 35 37 39 40 38 36 34 31 24 11 3 4 13 19 21 22 22 21 18 13 11 16 22 23 23
38 37 36 33 30 28 28 27 26 25 25 28 31 32 34 36 35 35 35 37 39 39 39 37 34 29 21 11 3 3 9 16 20 21 18 15 10 6 5 10 15 15 14
31 32 34 32 27 24 23 23 21 20 21 24 28 31 32 32 33 36 37 37 37 36 36 34 30 24 18 11 5 2 4 10 16 18 16 11 6 2 1 4 6 6 5
23 24 28 31 28 24 22 21 20 19 19 21 27 31 31 29 31 34 35 34 33 31 30 29 26 21 16 11 6 3 2 5 10 13 11 7 2 1 1 1 1 2 3
17 18 21 26 27 24 22 21 22 21 20 20 23 26 27 27 27 29 28 28 27 26 25 26 24 21 16 10 6 5 4 4 6 9 8 6 4 3 3 2 1 3 5
12 14 16 19 22 22 21 21 23 23 22 20 19 21 23 23 22 21 20 19 19 18 20 21 20 17 13 7 4 5 6 6 6 7 8 9 9 8 7 5 4 6 7
11 11 12 14 18 19 18 20 23 24 23 20 18 19 20 19 17 17 15 12 11 11 12 13 12 12 9 5 2 2 4 5 5 6 8 11 12 11 9 7 7 8 10

GEFSMW_con_probscp_240.txt.gz
Probability
23 22 23 26 32 37 39 36 28 20 15 10 7 6 4 4 2 3 7 10 9 7 6 7 9 9 8 7 5 4 5 6 6 7 7 7 5 5 6 5 4 3 4
28 27 27 29 34 40 43 41 35 27 19 13 10 7 6 6 4 5 9 13 13 11 10 11 11 10 10 8 7 6 5 5 6 7 8 7 5 4 5 7 7 6 7
35 35 33 33 36 41 43 43 43 36 26 18 13 10 9 8 7 9 13 16 17 15 14 15 15 13 12 10 9 8 6 5 6 7 7 7 6 4 5 7 8 9 10
36 38 38 36 37 39 40 41 43 39 30 22 17 14 12 9 10 12 15 17 18 17 16 17 18 18 15 13 11 9 7 7 6 7 7 7 6 6 6 6 7 8 9
33 37 39 38 37 38 38 37 39 39 34 26 22 19 16 13 13 15 17 18 19 20 20 21 23 23 20 17 13 10 9 8 7 7 7 7 7 6 6 6 7 7 8
30 35 39 39 37 37 37 37 39 41 38 31 26 22 20 18 18 20 21 19 20 23 25 26 28 28 26 23 18 14 12 11 10 9 7 6 6 6 6 7 6 7 7
27 33 39 40 38 37 37 40 45 46 42 35 30 27 25 23 23 23 23 21 21 25 28 30 31 31 29 25 21 18 16 15 14 11 9 7 5 6 7 7 6 4 3
22 27 34 39 41 42 42 46 51 51 45 37 34 34 31 28 26 25 25 24 22 24 28 31 32 31 28 24 21 20 20 21 19 15 13 11 8 7 8 8 6 3 1
17 21 27 36 44 47 48 52 55 54 49 42 39 39 37 33 31 29 28 28 27 26 28 31 30 28 27 25 24 24 25 26 24 21 20 17 13 11 9 9 8 6 4
14 18 26 34 41 46 50 53 56 56 54 49 44 42 42 39 37 34 33 34 34 34 34 33 29 27 27 28 28 27 27 28 28 27 25 22 19 16 13 12 12 11 10
16 21 29 34 38 44 49 53 56 58 57 55 52 50 49 48 45 42 40 41 41 42 41 38 33 28 27 29 30 27 26 26 27 27 27 26 25 22 19 17 17 17 18
19 26 33 37 41 45 49 53 56 58 59 60 59 59 58 57 53 50 49 47 44 44 44 43 38 33 31 32 33 30 28 27 27 27 29 30 31 30 28 25 23 22 23
25 31 38 43 45 48 51 52 52 53 55 58 59 60 61 60 58 57 55 51 48 47 46 45 43 41 39 37 36 35 34 32 31 30 31 32 35 36 36 32 28 27 28
31 37 46 50 51 51 52 51 50 50 51 52 55 56 57 57 57 59 58 56 53 52 50 47 45 44 42 39 36 36 37 37 35 33 31 31 32 34 32 29 28 29 30
37 44 52 57 57 55 53 52 52 53 54 54 54 55 54 55 57 60 59 57 55 51 48 46 43 42 39 34 31 31 34 36 36 34 31 28 27 25 22 20 20 24 27
43 48 56 60 60 58 55 55 56 57 58 59 59 56 55 54 57 60 58 57 54 48 44 43 43 41 35 27 22 24 29 32 33 32 31 28 24 21 18 15 13 16 19
47 50 55 60 60 58 56 57 59 59 58 59 60 59 57 56 56 56 55 55 55 51 46 44 43 41 34 22 14 16 24 30 31 31 30 28 26 24 22 18 15 14 15
47 48 51 54 55 55 55 56 58 58 56 56 57 58 58 56 53 52 52 54 54 53 49 46 44 41 33 19 10 10 20 29 32 30 28 28 27 24 21 21 20 20 19
46 45 44 45 49 52 54 54 53 53 52 52 53 54 54 52 51 51 52 53 52 50 46 43 42 40 32 19 8 9 18 28 29 26 23 23 22 19 16 17 21 21 20
43 41 39 41 45 50 52 52 51 50 49 49 49 49 47 46 48 50 52 52 50 46 42 41 41 39 33 21 9 10 20 26 25 21 19 17 16 13 11 13 17 17 17
38 38 40 43 46 49 51 52 51 49 48 47 46 45 44 43 44 48 51 50 46 42 41 42 42 40 34 23 10 10 18 21 20 18 17 15 11 6 6 9 12 13 14
33 36 41 45 46 49 52 53 50 47 46 47 45 44 44 41 39 43 46 45 42 39 39 42 42 40 36 25 12 7 10 12 14 15 14 11 5 2 2 3 6 8 8
32 34 38 42 45 47 51 53 51 47 46 47 46 44 43 39 37 39 39 38 39 38 36 36 37 38 36 27 15 6 3 4 7 9 9 5 1 0 0 1 1 3 4
34 33 35 40 43 45 48 51 51 47 46 47 46 42 37 32 31 33 32 32 33 33 30 29 31 33 31 24 16 10 6 4 4 4 4 4 2 2 3 2 1 2 3
39 36 37 42 44 45 46 48 48 48 48 47 43 37 29 23 23 24 24 23 23 20 19 20 23 23 21 16 12 11 9 7 5 4 5 6 6 5 6 6 4 4 4
43 41 41 45 46 45 45 46 45 47 49 46 39 31 24 20 18 18 16 16 14 10 9 12 15 15 12 9 8 9 9 7 4 4 6 7 7 8 8 8 7 7 7

GEFSMW_con_probscp_246.txt.gz
Probability
10 12 17 21 22 21 20 15 10 7 5 4 3 1 0 1 2 3 3 3 3 2 1 0 0 1 1 1 0 0 1 1 1 0 0 0 0 0 0 0 0 0 0
15 18 20 22 22 21 20 15 9 7 6 6 4 2 0 1 2 2 3 3 3 2 1 0 0 1 2 1 0 1 2 2 1 0 0 0 0 0 0 0 0 0 0
23 24 25 23 22 21 19 15 11 9 8 8 7 4 2 3 3 3 3 3 3 3 2 1 0 1 1 1 0 1 2 2 1 0 0 0 0 0 0 0 0 0 0
27 28 28 27 24 21 18 15 12 10 9 8 7 6 5 6 6 6 5 4 4 5 4 3 2 1 1 1 1 1 2 2 2 1 1 0 0 0 0 0 0 0 0
30 31 32 32 30 24 19 16 13 12 10 8 7 6 7 7 8 8 7 5 4 5 4 4 4 4 3 3 2 3 3 4 4 3 2 1 1 0 0 0 0 0 0
29 31 33 34 34 28 22 18 17 15 12 10 7 7 7 7 7 8 8 6 5 5 5 5 5 6 5 4 3 4 4 5 6 5 3 3 2 1 1 1 0 0 0
24 27 30 32 32 30 25 21 20 17 14 12 10 8 7 7 7 7 7 7 6 7 6 5 4 5 5 4 4 5 5 5 5 4 3 3 3 2 2 2 1 0 0
19 23 27 29 30 29 27 23 21 19 17 17 16 12 9 8 8 7 7 8 9 9 8 5 3 4 5 4 5 5 5 4 4 3 3 3 2 2 2 3 2 1 0
19 23 26 27 29 31 29 27 25 24 23 23 23 20 16 13 12 10 9 9 11 12 11 7 5 5 5 4 4 4 3 2 2 2 2 1 1 1 1 2 2 2 1
20 24 27 27 28 30 30 31 32 30 28 28 28 26 23 19 16 14 12 11 13 15 14 10 8 7 7 5 4 3 2 2 1 1 1 0 0 0 0 1 1 2 3
19 25 29 27 26 28 31 36 38 37 34 33 32 30 26 23 21 19 16 14 14 16 15 14 12 12 11 10 7 5 4 4 3 1 0 0 0 0 0 0 1 3 4
22 25 29 29 26 29 36 41 44 44 40 37 36 34 31 27 25 24 22 19 16 15 16 17 17 17 17 16 14 12 10 9 6 3 2 2 1 1 0 1 2 4 5
26 27 30 32 32 34 40 44 46 45 42 39 38 38 36 32 30 29 27 23 19 16 16 18 20 20 21 21 19 17 16 14 9 6 4 4 4 3 3 4 5 6 6
29 30 34 36 36 37 39 41 42 42 41 39 38 38 37 35 33 32 29 25 20 17 17 19 21 22 23 22 20 18 16 14 11 8 6 5 4 4 6 8 8 8 9
33 34 38 38 37 35 36 37 39 39 38 37 36 35 34 33 33 32 30 25 20 17 17 20 23 24 23 20 18 16 13 12 10 8 6 5 4 5 7 8 8 9 9
31 33 35 36 36 34 33 34 35 36 35 34 33 31 29 30 31 31 30 24 19 17 17 19 23 23 22 19 16 13 11 10 9 6 5 5 5 5 5 5 5 6 7
26 27 28 30 33 33 32 32 32 32 31 30 27 24 25 29 31 31 30 26 20 17 17 18 21 22 20 16 12 9 9 9 7 5 5 6 6 4 3 3 3 4 5
22 22 22 25 29 31 32 33 33 31 28 24 20 20 24 28 31 32 32 28 22 17 16 17 19 19 17 13 8 6 7 8 7 6 8 9 6 4 3 3 3 3 4
19 20 21 25 29 31 32 32 32 29 24 20 18 20 24 27 30 31 30 26 21 18 17 17 18 16 13 10 7 7 8 9 8 7 8 7 4 2 2 2 2 2 2
17 19 23 25 29 31 31 30 30 27 22 18 18 20 23 25 26 27 25 22 19 18 19 18 17 15 12 8 6 7 11 10 6 4 5 4 2 0 1 1 1 1 1
19 21 23 23 24 27 28 28 27 25 21 18 18 21 23 23 22 22 22 21 20 19 19 19 17 15 11 8 5 6 10 9 5 3 2 2 1 0 0 1 1 1 0
21 21 22 20 20 21 23 23 22 21 21 20 20 21 21 21 21 21 22 22 21 20 19 19 18 14 10 7 5 4 5 6 5 3 2 2 2 1 0 1 2 2 1
19 20 20 20 19 19 20 19 18 18 20 21 21 19 17 17 18 19 20 22 22 21 20 19 16 12 9 6 3 2 2 3 4 3 1 2 2 1 0 0 1 2 2
16 16 18 19 20 19 18 17 17 18 19 20 18 14 11 11 12 13 14 17 18 18 17 16 12 9 7 6 4 2 2 2 2 2 1 1 1 1 1 0 1 2 2
14 14 16 17 18 18 17 16 16 17 17 16 14 10 7 6 6 6 7 9 10 10 11 9 6 5 6 6 4 3 3 3 2 2 1 1 1 1 1 1 1 2 1
13 14 14 15 16 16 15 14 14 14 13 13 12 8 5 4 3 3 3 3 4 4 4 3 2 4 5 4 2 2 3 2 1 1 2 2 2 2 3 3 2 1 0

GEFSMW_con_probscp_252.txt.gz
Probability
0 1 1 0 0 0 0 0 0 1 3 3 2 1 0 0 1 1 1 1 0 0 0 0 1 0 0 0 0 1 0 0 0 0 0 0 0 0 0 0 0 1 2
1 2 2 1 0 0 1 1 1 2 3 2 1 0 0 0 1 2 2 2 1 1 1 1 2 1 0 0 0 1 0 0 0 0 0 0 0 0 0 0 0 1 2
0 1 3 3 1 1 2 2 3 3 3 2 1 1 1 1 2 3 3 3 3 2 2 3 3 3 1 0 0 0 0 0 0 0 0 0 0 0 0 0 0 0 1
1 2 3 5 5 5 4 4 3 3 2 2 2 3 3 2 3 3 3 3 3 3 3 4 5 5 3 1 0 0 0 1 1 0 0 0 0 0 0 0 0 0 0
5 4 4 6 9 10 9 5 3 2 1 1 3 4 4 3 3 3 3 3 3 3 4 5 5 5 4 2 1 0 0 1 1 2 1 0 0 0 0 0 0 0 0
8 7 7 8 10 13 12 8 3 1 0 0 1 3 3 3 2 3 3 3 3 3 3 4 4 5 5 3 2 1 1 2 3 3 2 1 0 0 0 0 0 0 0
8 9 10 10 11 13 13 10 6 3 2 1 2 2 3 2 2 2 3 3 3 4 4 4 4 5 5 4 2 2 3 3 3 3 2 1 0 0 0 0 0 0 0
8 9 11 13 13 13 14 13 10 8 6 5 4 3 2 1 1 1 2 3 4 5 6 6 6 6 5 4 3 3 3 2 2 2 1 0 0 0 0 0 0 0 0
9 8 9 11 12 12 14 15 15 13 11 10 8 7 5 3 2 2 2 3 4 5 6 7 7 7 6 7 6 5 3 2 1 1 0 0 0 0 0 0 0 0 0
10 8 7 9 10 10 12 15 17 16 16 15 13 12 11 9 7 6 5 5 5 5 5 7 8 8 8 9 10 9 6 4 2 2 1 1 0 0 0 0 0 0 0
10 9 8 9 10 11 13 16 18 18 19 19 17 16 15 13 12 10 9 8 7 5 6 8 8 8 10 12 12 12 11 9 7 6 5 3 1 0 0 0 0 0 0
10 10 10 10 13 17 18 19 20 20 22 23 22 21 19 19 19 19 17 15 12 9 8 9 9 9 11 13 13 13 13 12 11 11 9 5 3 2 2 2 2 2 1
9 11 12 14 18 21 22 22 23 23 25 28 29 27 26 27 30 30 25 21 17 13 11 11 12 12 13 14 14 15 16 14 12 12 10 7 4 4 4 4 5 5 4
10 11 13 16 19 21 21 23 25 26 27 29 32 32 31 33 34 32 27 22 18 16 14 13 14 15 15 15 17 18 18 16 13 13 12 9 6 4 4 5 7 8 7
10 10 12 14 16 18 20 22 23 25 27 28 31 32 32 32 31 28 24 21 19 18 16 15 15 15 15 15 16 19 19 17 14 14 13 10 7 3 2 3 6 7 6
9 9 10 11 11 14 18 20 21 23 25 25 26 26 26 27 26 24 22 21 21 20 18 17 16 15 13 11 12 15 17 16 14 13 12 9 6 2 1 1 2 3 3
10 10 11 11 10 11 14 17 19 20 20 20 20 20 21 22 22 20 18 20 21 19 18 18 18 16 13 9 7 9 14 16 15 13 11 8 4 2 1 1 1 1 1
11 10 10 10 9 10 11 13 15 16 17 17 16 16 17 18 18 17 16 17 18 17 16 17 18 18 15 10 6 7 11 14 16 15 13 10 6 2 1 1 0 1 1
9 8 7 7 6 7 8 10 11 13 14 14 13 13 14 16 17 17 15 15 16 14 12 13 16 17 15 11 6 7 9 13 15 15 14 12 7 2 0 0 1 2 2
7 6 6 5 5 6 7 8 9 10 10 10 10 11 12 14 16 16 16 16 16 13 11 12 14 15 14 10 6 5 8 13 14 13 11 9 5 1 0 0 1 2 1
6 6 6 6 7 6 7 7 7 7 8 8 10 11 12 12 13 15 15 16 16 14 13 14 14 13 12 9 4 3 7 12 14 12 9 5 2 0 0 0 1 1 0
7 6 6 7 8 8 9 9 8 8 9 11 11 11 11 11 12 12 13 14 15 15 16 17 15 12 10 7 3 2 4 9 12 12 8 4 1 0 0 0 0 0 0
7 7 7 8 9 9 10 11 11 11 12 12 12 11 10 11 12 12 11 11 11 13 15 17 15 11 8 6 4 2 2 4 8 8 5 2 1 0 0 0 0 0 1
7 7 7 7 8 9 11 12 12 13 12 12 11 10 11 12 13 13 12 10 9 10 12 14 13 9 6 6 6 4 2 3 4 5 4 2 1 0 0 0 0 1 2
6 6 6 6 6 8 11 11 11 11 12 11 10 10 11 11 11 10 9 9 8 8 10 11 9 7 5 6 6 5 4 3 3 4 4 3 2 1 1 1 2 2 3
4 5 6 6 6 7 9 9 8 10 12 12 10 10 10 9 8 7 6 6 7 8 9 8 7 6 5 4 4 4 4 4 3 4 5 4 3 2 2 3 3 3 3

GEFSMW_con_probscp_258.txt.gz
Probability
0 1 2 2 1 0 0 0 0 1 1 0 0 1 2 2 2 2 1 0 0 0 0 0 1 2 4 4 4 4 4 4 5 4 4 3 1 0 0 0 0 0 1
2 2 3 3 2 1 0 0 0 2 2 1 1 2 3 2 2 1 0 0 0 0 0 1 1 3 7 9 9 8 7 7 7 6 4 3 2 1 0 0 0 1 2
6 7 6 4 3 2 1 1 1 3 4 4 3 3 3 1 1 0 0 0 0 0 0 2 2 4 7 11 12 12 11 10 9 7 5 4 3 1 0 0 1 2 3
10 11 10 7 5 3 2 2 4 5 6 6 5 3 1 0 0 1 2 2 1 1 1 2 5 6 6 8 11 11 11 10 9 7 6 5 5 3 1 1 2 3 3
12 11 10 8 6 3 2 5 9 10 9 10 9 6 3 2 3 4 4 4 4 3 3 4 6 7 6 7 8 9 10 9 7 7 6 7 7 6 4 3 3 3 3
14 11 9 9 8 6 5 8 14 15 14 13 12 10 8 6 6 6 7 6 5 5 5 5 7 8 7 7 8 9 9 8 7 6 6 7 7 7 5 3 2 2 2
13 12 11 11 11 10 10 12 16 19 18 15 13 12 12 10 9 9 8 7 6 6 6 6 7 7 8 9 9 10 10 8 6 6 6 5 5 5 4 2 1 1 1
11 14 15 13 13 14 14 15 19 22 21 18 17 17 16 13 13 13 10 7 7 8 8 8 8 9 10 11 11 10 9 8 6 5 4 3 3 3 2 1 0 0 0
12 15 17 16 14 14 15 17 22 26 25 23 22 21 19 18 17 16 13 10 11 12 14 14 14 14 15 15 13 11 9 8 7 6 5 4 3 3 2 1 0 0 0
13 16 20 20 17 16 16 18 22 26 27 26 25 23 22 23 23 21 19 18 20 21 21 20 20 21 21 19 16 13 10 10 10 10 10 10 9 7 6 4 2 2 2
12 15 21 25 24 21 20 22 23 25 27 27 27 26 25 26 26 26 26 27 29 29 27 26 25 25 25 23 17 12 10 10 11 13 15 16 17 16 14 11 9 8 8
13 15 20 26 27 25 24 25 26 26 28 28 28 28 27 27 28 29 30 32 33 33 31 30 29 29 29 27 22 15 12 12 13 15 17 20 22 22 21 18 16 16 16
16 18 21 25 28 27 27 26 26 27 30 29 29 30 30 30 29 29 32 35 36 35 34 34 33 33 33 31 26 20 16 16 15 17 18 21 24 24 24 23 21 20 20
22 24 25 28 32 33 31 29 28 31 33 32 32 34 34 34 33 34 38 42 42 40 38 38 36 35 33 30 27 24 21 19 17 17 19 20 21 22 22 23 23 22 21
26 28 30 34 39 41 40 36 34 36 37 37 39 41 41 40 41 42 44 47 46 43 42 40 38 36 32 28 26 26 24 22 20 18 19 18 16 16 16 17 20 21 22
25 28 32 38 42 45 47 44 40 39 40 41 43 46 47 47 47 48 49 50 47 44 43 42 40 38 32 24 22 25 25 25 23 21 20 16 12 10 10 10 10 13 16
22 24 30 35 39 41 45 45 41 38 39 41 43 46 49 49 48 49 50 51 49 45 43 42 41 38 31 20 15 18 24 27 26 25 22 17 12 10 11 9 7 8 10
19 19 23 28 30 32 36 38 35 32 33 36 39 43 46 47 46 46 47 48 47 44 40 40 39 37 29 17 10 13 21 27 27 25 24 21 15 12 13 13 12 12 11
15 15 16 18 21 23 26 29 28 26 25 28 34 38 40 42 43 44 43 43 43 40 35 34 35 35 28 17 9 10 20 27 26 24 24 21 17 13 13 15 16 15 15
13 13 13 13 16 20 24 25 25 24 22 23 28 31 33 36 39 41 41 40 39 35 30 29 32 34 29 18 8 9 19 25 24 23 22 19 14 10 10 14 16 15 15
14 15 15 14 15 21 26 26 24 23 23 22 23 25 27 29 32 35 38 38 36 32 30 29 31 33 29 18 8 7 15 19 20 21 21 17 10 5 5 9 13 12 11
15 16 16 15 17 21 26 28 26 24 24 22 20 21 22 23 25 29 33 35 34 32 31 31 30 28 24 16 8 4 6 12 18 20 19 15 6 1 1 4 6 6 5
13 15 15 17 19 20 22 25 25 25 25 23 20 20 21 21 23 27 30 32 33 33 32 30 26 23 20 15 9 4 2 6 14 18 15 8 3 0 0 1 1 3 4
11 13 15 18 19 19 20 21 21 22 23 22 21 20 22 23 26 28 28 29 31 31 30 27 24 21 18 16 12 8 6 6 10 12 10 5 4 3 3 3 3 5 6
9 11 14 16 18 18 19 20 19 19 20 21 21 21 21 23 25 25 24 23 24 24 22 21 19 18 15 13 13 12 10 8 7 7 7 7 8 9 9 8 8 7 7
8 9 11 13 15 17 19 20 19 19 20 21 22 21 19 21 23 21 18 17 17 15 14 15 15 13 10 9 10 11 10 7 5 6 7 8 10 11 12 11 9 8 6